Flag for Japan Weather past 2 weeks in Nagoya, Japan

50 °F

Passing clouds.

Feels Like: 45 °F
Forecast: 34 / 53 °F
Wind: 14 mph from Northwest

Location: Nagoya Airport

Current Time: Nov 28, 2015 at 5:07:21 AM

Latest Report: Nov 28, 2015 at 4:30 AM

Visibility: N/A

Pressure: 30.21 "Hg

Humidity: 50%

Dew point: 32 °F

Location of NagoyaLocation

Historic Weather in Nagoya — Graph


Nagoya temperature yesterday

Maximum temperature yesterday: 54 °F (at 2:00 PM)
Minimum temperature yesterday: 46 °F (at 5:30 AM)
Average temperature yesterday: 50 °F

Past Weeks' High & Low Weather Summary

High70 °F (Nov 15, 12:00 PM)94% (Nov 14, 2:30 PM)30.39 "Hg (Nov 14, 2:30 PM)
Low46 °F (Nov 27, 5:30 AM)38% (Nov 21, 11:30 AM)29.68 "Hg (Nov 26, 2:30 PM)
Average60 °F73%30.06 "Hg
* Reported Nov 13 4:00 AM — Nov 28 4:00 AM, Nagoya, Weather by CustomWeather, © 2015

Note: Actual official high and low records may vary slightly from our data, if they occured in-between our weather recording intervals... More about our weather records


Nagoya weather history for previous 24 hours

Time TempWeatherWind HumidityBarometerVisibility
4:00 AM
Sat, Nov 28
50 °FPassing clouds.18 mph54%30.21 "HgN/A
3:30 AM50 °FPassing clouds.21 mph54%30.18 "HgN/A
3:00 AM50 °FPassing clouds.16 mph47%30.21 "HgN/A
2:30 AM50 °FPassing clouds.16 mph54%30.21 "HgN/A
2:00 AM50 °FPassing clouds.15 mph47%30.21 "HgN/A
1:30 AM50 °FPassing clouds.16 mph54%30.18 "HgN/A
1:00 AM50 °FPassing clouds.13 mph54%30.18 "HgN/A
12:30 AM50 °FPassing clouds.15 mph54%30.15 "HgN/A
12:00 AM50 °FPassing clouds.21 mph50%30.18 "HgN/A
11:30 PM
Fri, Nov 27
50 °FPassing clouds.25 mph50%30.18 "HgN/A
11:00 PM52 °FPassing clouds.24 mph54%30.18 "HgN/A
10:30 PM52 °FPassing clouds.24 mph50%30.18 "HgN/A
10:00 PM52 °FPassing clouds.22 mph50%30.18 "HgN/A
9:30 PM52 °FPassing clouds.24 mph54%30.18 "HgN/A
9:00 PM52 °FPassing clouds.25 mph54%30.15 "HgN/A
8:30 PM52 °FPassing clouds.29 mph54%30.15 "HgN/A
8:00 PM52 °FPassing clouds.29 mph54%30.15 "HgN/A
7:30 PM52 °FPassing clouds.28 mph54%30.12 "HgN/A
7:00 PM52 °FPassing clouds.23 mph50%30.12 "HgN/A
6:30 PM52 °FPassing clouds.16 mph50%30.12 "HgN/A
6:00 PM52 °FPassing clouds.14 mph50%30.09 "HgN/A
5:30 PM50 °FPassing clouds.9 mph54%30.07 "HgN/A
5:00 PM52 °FPassing clouds.20 mph54%30.07 "HgN/A
3:30 PM54 °FScattered clouds.24 mph54%30.01 "HgN/A
3:00 PM52 °FScattered clouds.24 mph54%29.98 "HgN/A
2:30 PM54 °FScattered clouds.25 mph47%29.98 "HgN/A
2:00 PM54 °FPartly sunny.25 mph54%29.98 "HgN/A
1:30 PM52 °FScattered clouds.22 mph47%29.95 "HgN/A
1:00 PM52 °FScattered clouds.22 mph50%29.95 "HgN/A
12:30 PM52 °FScattered clouds.24 mph50%29.95 "HgN/A
12:00 PM52 °FPassing clouds.29 mph44%29.95 "HgN/A
11:30 AM50 °FPassing clouds.35 mph47%29.95 "HgN/A
11:00 AM50 °FPassing clouds.36 mph50%29.95 "HgN/A
10:30 AM50 °FPassing clouds.36 mph47%29.95 "HgN/A
10:00 AM50 °FPassing clouds.28 mph54%29.95 "HgN/A
9:30 AM48 °FPassing clouds.28 mph54%29.95 "HgN/A
9:00 AM48 °FPassing clouds.23 mph50%29.92 "HgN/A
8:30 AM46 °FPassing clouds.22 mph50%29.92 "HgN/A
7:30 AM46 °FPassing clouds.29 mph57%29.89 "HgN/A
7:00 AM46 °FPassing clouds.23 mph53%29.89 "HgN/A
6:30 AM46 °FPassing clouds.23 mph57%29.86 "HgN/A
5:30 AM46 °FPassing clouds.25 mph57%29.83 "HgN/A
5:00 AM48 °FPassing clouds.21 mph54%29.83 "HgN/A
Weather by CustomWeather, © 2015

See weather overviewHow to use our weather pages